KF7MJQ-10 Weather Reports


time (UTC)temp
C
wind
direction
speed
KPH
gust
KPH
rain 1hr
cm
rain 24hr
cm
rain mn
cm
humidity
%
barometer
mb
20260503230019 20 304 1.6 4.8 0.00 0.00 0.00 60 1010.0
20260503225517 20 308 1.6 6.4 0.00 0.00 0.00 59 1010.1
20260503225016 20 316 0.0 6.4 0.00 0.00 0.00 59 1010.1
20260503224515 20 302 0.0 4.8 0.00 0.00 0.00 58 1010.2
20260503224015 20 250 1.6 12.9 0.00 0.00 0.00 59 1010.3
20260503223513 20 28 1.6 9.7 0.00 0.00 0.00 59 1010.3
20260503223059 20 293 0.0 4.8 0.00 0.00 0.00 58 1010.4
20260503222556 20 113 0.0 8.0 0.00 0.00 0.00 59 1010.4
20260503222057 20 329 1.6 9.7 0.00 0.00 0.00 59 1010.5
20260503221556 21 302 1.6 8.0 0.00 0.00 0.00 58 1010.5
20260503221056 21 320 1.6 8.0 0.00 0.00 0.00 58 1010.5
20260503220552 21 300 0.0 9.7 0.00 0.00 0.00 59 1010.6
20260503220037 21 70 1.6 11.3 0.00 0.00 0.00 55 1010.6
20260503215534 21 290 0.0 9.7 0.00 0.00 0.00 56 1010.7
20260503215032 21 66 1.6 11.3 0.00 0.00 0.00 56 1010.7
20260503214530 21 255 1.6 11.3 0.00 0.00 0.00 54 1010.7
20260503214029 22 309 1.6 6.4 0.00 0.00 0.00 56 1010.8
20260503213528 22 298 1.6 8.0 0.00 0.00 0.00 54 1010.8
20260503213015 22 98 0.0 8.0 0.00 0.00 0.00 55 1010.8
20260503212508 22 84 0.0 6.4 0.00 0.00 0.00 53 1010.7
20260503212007 23 283 0.0 6.4 0.00 0.00 0.00 51 1010.8
20260503211506 23 50 0.0 4.8 0.00 0.00 0.00 55 1010.7
20260503211004 23 305 0.0 6.4 0.00 0.00 0.00 52 1010.7
20260503210503 23 109 1.6 16.1 0.00 0.00 0.00 52 1010.8
20260503205543 23 314 0.0 4.8 0.00 0.00 0.00 53 1010.9
20260503205044 23 43 0.0 8.0 0.00 0.00 0.00 52 1010.9
20260503204539 23 347 3.2 8.0 0.00 0.00 0.00 50 1011.0
20260503204039 23 209 0.0 4.8 0.00 0.00 0.00 51 1011.0
20260503203537 23 240 0.0 4.8 0.00 0.00 0.00 51 1011.1
20260503203039 23 37 0.0 8.0 0.00 0.00 0.00 53 1011.1
20260503202516 23 34 1.6 8.0 0.00 0.00 0.00 51 1011.2
20260503202015 23 255 0.0 4.8 0.00 0.00 0.00 52 1011.2
20260503201512 23 294 0.0 6.4 0.00 0.00 0.00 55 1011.3
20260503201011 23 343 0.0 6.4 0.00 0.00 0.00 53 1011.3
20260503200512 23 86 0.0 8.0 0.00 0.00 0.00 50 1011.4
20260503200009 23 315 0.0 8.0 0.00 0.00 0.00 53 1011.4
20260503195550 23 342 0.0 3.2 0.00 0.00 0.00 55 1011.4
20260503195048 23 292 0.0 4.8 0.00 0.00 0.00 55 1011.5
20260503194549 23 212 0.0 4.8 0.00 0.00 0.00 53 1011.5
20260503194045 23 242 0.0 1.6 0.00 0.00 0.00 56 1011.5
20260503193544 23 266 0.0 3.2 0.00 0.00 0.00 55 1011.5
20260503193043 23 277 0.0 6.4 0.00 0.00 0.00 57 1011.6
20260503192522 23 219 1.6 6.4 0.00 0.00 0.00 55 1011.6
20260503192022 23 240 1.6 4.8 0.00 0.00 0.00 54 1011.7
20260503191520 23 231 0.0 6.4 0.00 0.00 0.00 55 1011.7
20260503191023 23 239 1.6 6.4 0.00 0.00 0.00 54 1011.8
20260503190520 23 230 0.0 1.6 0.00 0.00 0.00 53 1011.8
20260503190025 23 293 0.0 3.2 0.00 0.00 0.00 55 1011.8
20260503185558 23 263 0.0 3.2 0.00 0.00 0.00 52 1011.8
20260503185056 23 218 0.0 4.8 0.00 0.00 0.00 55 1011.8
20260503184606 23 229 0.0 4.8 0.00 0.00 0.00 54 1011.9
20260503184053 23 264 0.0 4.8 0.00 0.00 0.00 54 1011.9
20260503183551 24 211 0.0 0.0 0.00 0.00 0.00 53 1011.9
20260503183050 25 274 0.0 0.0 0.00 0.00 0.00 52 1012.0
20260503182541 25 309 0.0 0.0 0.00 0.00 0.00 54 1012.0
20260503182033 25 219 0.0 0.0 0.00 0.00 0.00 53 1011.9
20260503181528 25 188 0.0 0.0 0.00 0.00 0.00 49 1011.9
20260503181027 25 232 0.0 1.6 0.00 0.00 0.00 54 1012.0
20260503180526 25 273 0.0 3.2 0.00 0.00 0.00 53 1012.0
20260503180024 25 200 0.0 3.2 0.00 0.00 0.00 51 1012.1
20260503175506 25 257 0.0 0.0 0.00 0.00 0.00 52 1012.1
20260503175004 24 209 0.0 0.0 0.00 0.00 0.00 52 1012.1
20260503174502 24 214 0.0 0.0 0.00 0.00 0.00 51 1012.1
20260503174002 23 188 0.0 1.6 0.00 0.00 0.00 52 1012.1
20260503173600 23 50 0.0 3.2 0.00 0.00 0.00 51 1012.2
20260503173106 23 102 0.0 4.8 0.00 0.00 0.00 52 1012.2
20260503172540 22 70 0.0 3.2 0.00 0.00 0.00 54 1012.3
20260503172037 22 58 0.0 3.2 0.00 0.00 0.00 53 1012.3
20260503171536 22 68 0.0 0.0 0.00 0.00 0.00 53 1012.3
20260503171035 22 51 0.0 0.0 0.00 0.00 0.00 54 1012.3
20260503170534 21 32 0.0 3.2 0.00 0.00 0.00 54 1012.2
20260503150549 -17 0.0 0.0 0.00 0.00 0.00 1012.7
20260503131013 -17 0.0 0.0 0.00 0.00 0.00 1012.4
20260503130512 -17 0.0 0.0 0.00 0.00 0.00 1012.5
20260503110554 -17 0.0 0.0 0.00 0.00 0.00 1012.8
20260503100132 -17 0.0 0.0 0.00 0.00 0.00 1012.9
20260503090510 -17 0.0 0.0 0.00 0.00 0.00 1013.1
20260503081549 -17 0.0 0.0 0.00 0.00 0.00 1013.2
20260503081046 -17 0.0 0.0 0.00 0.00 0.00 1013.2
20260503072514 -17 0.0 0.0 0.00 0.00 0.00 1013.3
20260503072011 -17 0.0 0.0 0.00 0.00 0.00 1013.2
20260503071524 -17 0.0 0.0 0.00 0.00 0.00 1013.2
20260503071108 -17 0.0 0.0 0.00 0.00 0.00 1013.3
20260503070524 -17 0.0 0.0 0.00 0.00 0.00 1013.2
20260503055029 9 65 0.0 0.0 0.00 0.00 0.00 1 1013.4
20260503054525 9 65 0.0 0.0 0.00 0.00 0.00 1 1013.4
20260503054013 9 65 0.0 0.0 0.00 0.00 0.00 1 1013.5
20260503053508 9 65 0.0 0.0 0.00 0.00 0.00 1 1013.5
20260503053006 9 65 0.0 0.0 0.00 0.00 0.00 1 1013.5
20260503052504 9 65 0.0 0.0 0.00 0.00 0.00 1 1013.4
20260503052004 9 65 0.0 0.0 0.00 0.00 0.00 1 1013.4
20260503051543 9 65 0.0 0.0 0.00 0.00 0.00 1 1013.4
20260503051043 9 65 0.0 0.0 0.00 0.00 0.00 1 1013.4
20260503050541 10 65 0.0 0.0 0.00 0.00 0.00 1 1013.3
20260503050039 10 65 0.0 0.0 0.00 0.00 0.00 1 1013.4
20260503045538 10 65 0.0 0.0 0.00 0.00 0.00 1 1013.3
20260503045137 10 65 0.0 0.0 0.00 0.00 0.00 1 1013.3
20260503044522 10 65 0.0 0.0 0.00 0.00 0.00 1 1013.2
20260503044021 10 65 0.0 0.0 0.00 0.00 0.00 1 1013.2
20260503043520 10 65 0.0 0.0 0.00 0.00 0.00 1 1013.1
20260503043018 10 65 0.0 1.6 0.00 0.00 0.00 1 1013.1
20260503042516 10 72 0.0 1.6 0.00 0.00 0.00 1 1013.0
20260503042015 10 25 0.0 0.0 0.00 0.00 0.00 1 1013.0
20260503041514 10 39 0.0 0.0 0.00 0.00 0.00 1 1013.0
20260503041012 10 331 0.0 1.6 0.00 0.00 0.00 1 1012.9
20260503040516 10 332 0.0 3.2 0.00 0.00 0.00 1 1012.9
20260503040011 10 18 0.0 1.6 0.00 0.00 0.00 1 1012.9
20260503035512 10 48 0.0 3.2 0.00 0.00 0.00 1 1012.9
20260503035014 10 329 0.0 3.2 0.00 0.00 0.00 1 1012.8
20260503034510 10 342 0.0 3.2 0.00 0.00 0.00 1 1012.7
20260503034008 10 358 0.0 3.2 0.00 0.00 0.00 1 1012.7
20260503033506 10 290 0.0 1.6 0.00 0.00 0.00 1 1012.7
20260503033009 10 309 0.0 1.6 0.00 0.00 0.00 1 1012.6
20260503032503 10 308 0.0 1.6 0.00 0.00 0.00 1 1012.6
20260503032002 10 259 0.0 6.4 0.00 0.00 0.00 1 1012.6
20260503031601 10 314 0.0 6.4 0.00 0.00 0.00 1 1012.6
20260503031059 10 27 0.0 1.6 0.00 0.00 0.00 1 1012.6
20260503030558 11 297 0.0 1.6 0.00 0.00 0.00 1 1012.6
20260503030056 11 74 0.0 1.6 0.00 0.00 0.00 1 1012.6
20260503025555 11 346 0.0 1.6 0.00 0.00 0.00 1 1012.5
20260503025053 11 100 0.0 3.2 0.00 0.00 0.00 1 1012.5
20260503024553 11 141 0.0 3.2 0.00 0.00 0.00 1 1012.5
20260503024033 11 278 0.0 3.2 0.00 0.00 0.00 1 1012.5
20260503023531 11 94 0.0 3.2 0.00 0.00 0.00 1 1012.5
20260503023032 11 359 0.0 3.2 0.00 0.00 0.00 1 1012.5
20260503022528 11 287 0.0 6.4 0.00 0.00 0.00 1 1012.3
20260503022027 11 23 0.0 6.4 0.00 0.00 0.00 1 1012.3
20260503021526 11 305 0.0 4.8 0.00 0.00 0.00 1 1012.3
20260503021007 11 278 0.0 9.7 0.00 0.00 0.00 1 1012.2
20260503020506 11 280 1.6 9.7 0.00 0.00 0.00 1 1012.2
20260503020004 11 266 0.0 3.2 0.00 0.00 0.00 1 1012.2
20260503015503 11 271 0.0 3.2 0.00 0.00 0.00 1 1012.3
20260503015001 11 38 0.0 8.0 0.00 0.00 0.00 1 1012.3
20260503014620 11 285 0.0 8.0 0.00 0.00 0.00 1 1012.4
20260503014042 11 300 0.0 6.4 0.00 0.00 0.00 1 1012.4
20260503013540 11 309 1.6 8.0 0.00 0.00 0.00 1 1012.4
20260503013038 11 295 0.0 8.0 0.00 0.00 0.00 1 1012.5
20260503012538 11 307 0.0 6.4 0.00 0.00 0.00 1 1012.6
20260503012038 11 259 0.0 6.4 0.00 0.00 0.00 1 1012.7
20260503011533 11 283 0.0 8.0 0.00 0.00 0.00 1 1012.7
20260503011015 11 352 0.0 4.8 0.00 0.00 0.00 1 1012.8
20260503010513 11 56 0.0 4.8 0.00 0.00 0.00 1 1012.8
20260503010012 11 290 0.0 6.4 0.00 0.00 0.00 1 1012.9
20260503005511 12 304 0.0 14.5 0.00 0.00 0.00 1 1012.8
20260503005012 12 338 3.2 14.5 0.00 0.00 0.00 1 1012.9
20260503004507 12 347 0.0 8.0 0.00 0.00 0.00 1 1012.9
20260503004051 12 314 0.0 6.4 0.00 0.00 0.00 1 1012.9
20260503003548 12 15 0.0 8.0 0.00 0.00 0.00 1 1013.0
20260503003055 12 321 1.6 6.4 0.00 0.00 0.00 1 1013.0
20260503002546 12 29 0.0 4.8 0.00 0.00 0.00 1 1013.0
20260503002045 12 6 0.0 4.8 0.00 0.00 0.00 1 1012.9
20260503001603 12 305 0.0 6.4 0.00 0.00 0.00 1 1012.9
20260503001041 12 4 0.0 6.4 0.00 0.00 0.00 1 1013.0
20260503000540 12 231 0.0 4.8 0.00 0.00 0.00 1 1013.0
20260503000045 12 304 0.0 8.0 0.00 0.00 0.00 1 1013.1
20260502235537 12 34 1.6 9.7 0.00 0.00 0.00 1 1013.2
20260502235036 13 8 1.6 9.7 0.00 0.00 0.00 1 1013.2
20260502234538 13 328 1.6 8.0 0.00 0.00 0.00 1 1013.2
20260502234033 13 302 0.0 8.0 0.00 0.00 0.00 1 1013.3
20260502233531 13 253 0.0 8.0 0.00 0.00 0.00 1 1013.4
20260502233032 13 348 3.2 6.4 0.00 0.00 0.00 1 1013.5
20260502232528 13 62 0.0 9.7 0.00 0.00 0.00 1 1013.4
20260502232027 13 240 0.0 9.7 0.00 0.00 0.00 1 1013.6
20260502231026 14 340 0.0 6.4 0.00 0.00 0.00 1 1013.7